{"data":{"norad_id":63944,"epoch":"2026-05-25T03:35:50.528832Z","epoch_age_seconds":52333,"freshness":"FRESH","line1":"1 63944U 25098U   26145.14989038  .00001337  00000+0  11983-3 0  9998","line2":"2 63944  70.0011  81.7469 0002978 263.6398  96.4422 14.98337330 58006","mean_motion":14.9833733,"eccentricity":0.0002978,"inclination_deg":70.0011,"raan_deg":81.7469,"arg_perigee_deg":263.6398,"mean_anomaly_deg":96.4422,"bstar":0.00011983,"rev_number":5800,"period_min":96.106528961672,"perigee_km":569.96346292389,"apogee_km":574.10298430907,"semimajor_km":6950.1702236165,"source":"CELESTRAK","updated_at":"2026-05-25T13:38:20.186998Z"}}